This demonstration page uses our WeatherBlox Daily Observations layout. Learn more.

Left ArrowRight Arrow

40.92945, -100.16068

Hourly Observations for October 16, 2016

Temp ( °F °C ) Dew Point ( °F °C ) Humidity (%) Winds ( mph kmh ) Pressure ( in mb ) Visibility ( mi km ) Precip ( " mm )
12:15 am 00:15 Clear 54 12.1 44 6.6 69 69 E 3 6 29.85 1011 10 16 N/A
12:35 am 00:35 Clear 53 11.6 44 6.5 71 71 E 5 7 29.85 1011 10 16 N/A
12:55 am 00:55 Hazy 54 12 44 6.9 71 71 E 5 7 29.83 1010 3 5 N/A
1:15 am 01:15 Hazy 53 11.7 45 7 73 73 ESE 3 6 29.83 1010 5 8 N/A
1:35 am 01:35 Clear 54 12 45 7.1 72 72 ESE 5 7 29.83 1010 7 11 N/A
1:55 am 01:55 Clear 52 11.2 44 6.9 75 75 ENE 3 6 29.83 1010 10 16 N/A
2:15 am 02:15 Clear 49 9.5 44 6.5 82 82 E 5 7 29.83 1010 10 16 N/A
2:35 am 02:35 Clear 51 10.3 44 6.6 78 78 N N/A 29.83 1010 10 16 N/A
2:55 am 02:55 Clear 50 10.2 45 7 81 81 ENE 6 9 29.83 1010 10 16 N/A
3:15 am 03:15 Clear 48 9 44 6.5 85 85 E 3 6 29.83 1010 10 16 N/A
3:35 am 03:35 Clear 48 9.1 44 6.5 84 84 N N/A 29.80 1009 10 16 N/A
3:55 am 03:55 Clear 47 8.3 42 5.8 84 84 N N/A 29.80 1009 10 16 N/A
4:15 am 04:15 Clear 46 7.7 42 5.6 87 87 N N/A 29.83 1010 10 16 N/A
4:35 am 04:35 Clear 46 7.5 42 5.4 87 87 N N/A 29.83 1010 10 16 N/A
4:55 am 04:55 Clear 44 6.7 41 5 89 89 N N/A 29.83 1010 10 16 N/A
5:15 am 05:15 Partly Cloudy 46 7.5 43 5.9 90 90 N N/A 29.80 1009 10 16 N/A
5:35 am 05:35 Mostly Cloudy 46 7.5 43 6.1 91 91 N N/A 29.80 1009 10 16 N/A
5:55 am 05:55 Cloudy 48 9 46 7.6 91 91 E 5 7 29.77 1008 10 16 N/A
6:15 am 06:15 Cloudy 51 10.6 49 9.6 94 94 ESE 8 13 29.71 1006 7 11 N/A
6:35 am 06:35 Cloudy with Mist and Fog 52 11 50 10 94 94 E 5 7 29.71 1006 4 6 N/A
6:55 am 06:55 Cloudy with Mist and Fog 52 11 50 10 94 94 ESE 6 9 29.71 1006 5 8 N/A
7:15 am 07:15 Cloudy with Mist and Fog 52 11 50 10 94 94 N N/A 29.71 1006 4 6 N/A
7:35 am 07:35 Cloudy with Fog 52 11 50 10.2 95 95 ESE 5 7 29.68 1005 1 1 N/A
7:55 am 07:55 Cloudy with Fog 53 11.7 52 11 96 96 ESE 3 6 29.68 1005 5 8 N/A
8:15 am 08:15 Cloudy with Fog 54 12.3 53 11.6 96 96 E 5 7 29.68 1005 5 8 N/A
8:35 am 08:35 Cloudy with Fog 55 12.8 54 12.1 96 96 SE 6 9 29.68 1005 5 8 N/A
8:55 am 08:55 Cloudy with Fog 56 13.5 55 12.7 95 95 SE 5 7 29.65 1004 5 8 N/A
9:15 am 09:15 Cloudy with Fog 57 13.8 56 13.1 96 96 SSE 6 9 29.65 1004 5 8 N/A
9:35 am 09:35 Cloudy with Fog 58 14.2 56 13.5 96 96 SE 7 11 29.65 1004 0 0 N/A
9:55 am 09:55 Cloudy with Fog 59 14.8 57 14.1 96 96 SE 6 9 29.65 1004 1 1 N/A
10:15 am 10:15 Cloudy with Fog 60 15.7 59 15 96 96 SE 8 13 29.65 1004 1 1 N/A
10:35 am 10:35 Cloudy with Mist and Fog 60 15.8 59 15.1 96 96 SE 7 11 29.65 1004 1 2 N/A
10:55 am 10:55 Cloudy with Mist and Fog 61 16.2 60 15.5 96 96 N N/A 29.65 1004 4 6 N/A
11:15 am 11:15 Cloudy 63 17.1 62 16.4 96 96 SSE 12 19 29.62 1003 10 16 N/A
11:35 am 11:35 Cloudy 64 17.9 61 16.2 90 90 SSE 10 17 29.59 1002 10 16 N/A
11:55 am 11:55 Cloudy 65 18.1 60 15.8 87 87 S 14 22 29.62 1003 10 16 N/A
12:15 pm 12:15 Cloudy 66 18.7 61 15.9 84 84 S 13 20 29.62 1003 10 16 N/A
12:35 pm 12:35 Cloudy 66 19 60 15.7 81 81 S 13 20 29.62 1003 10 16 N/A
12:55 pm 12:55 Cloudy 67 19.3 60 15.5 79 79 S 13 20 29.59 1002 10 16 N/A
1:15 pm 13:15 Cloudy 68 19.9 60 15.4 75 75 S 12 19 29.59 1002 10 16 N/A
1:35 pm 13:35 Mostly Cloudy 69 20.5 59 15.2 72 72 S 12 19 29.56 1001 10 16 N/A
1:55 pm 13:55 Partly Cloudy 70 21.3 59 15.1 68 68 SSW 10 17 29.53 1000 10 16 N/A
2:15 pm 14:15 Sunny 71 21.8 59 15 65 65 SSW 9 15 29.53 1000 10 16 N/A
2:35 pm 14:35 Sunny 73 22.6 59 15.1 63 63 SW 8 13 29.53 1000 10 16 N/A
2:55 pm 14:55 Sunny 73 22.6 58 14.4 60 60 SW 7 11 29.53 1000 10 16 N/A
3:15 pm 15:15 Sunny 73 22.9 58 14.3 58 58 SW 6 9 29.47 998 10 16 N/A
3:35 pm 15:35 Sunny 74 23.1 58 14.5 59 59 SSW 6 9 29.47 998 10 16 N/A
3:55 pm 15:55 Sunny 75 24 58 14.3 55 55 S 5 7 29.47 998 10 16 N/A
4:15 pm 16:15 Sunny 76 24.5 57 14 52 52 SSW 6 9 29.47 998 10 16 N/A
4:35 pm 16:35 Sunny 75 24 57 14 54 54 S 5 7 29.47 998 10 16 N/A
4:55 pm 16:55 Sunny 75 23.9 57 13.8 53 53 SSW 5 7 29.47 998 10 16 N/A
5:15 pm 17:15 Sunny 77 25.1 56 13.4 48 48 SSW 5 7 29.50 999 10 16 N/A
5:35 pm 17:35 Sunny 76 24.6 55 12.9 48 48 SSW 6 9 29.50 999 10 16 N/A
5:55 pm 17:55 Sunny 74 23.4 56 13.4 54 54 S 6 9 29.50 999 10 16 N/A
6:15 pm 18:15 Sunny 71 21.6 56 13.3 59 59 SSE 6 9 29.53 1000 10 16 N/A
6:35 pm 18:35 Sunny 70 20.9 55 12.6 59 59 SSE 7 11 29.53 1000 10 16 N/A
6:55 pm 18:55 Sunny 69 20.3 55 12.6 61 61 SSE 5 7 29.53 1000 10 16 N/A
7:15 pm 19:15 Clear 66 19 55 12.6 67 67 N N/A 29.56 1001 7 11 N/A
7:35 pm 19:35 Clear 64 17.5 54 12.3 72 72 N N/A 29.56 1001 10 16 N/A
7:55 pm 19:55 Clear 64 18 55 12.6 71 71 N N/A 29.56 1001 10 16 N/A
8:15 pm 20:15 Clear 60 15.8 53 11.5 76 76 N N/A 29.62 1003 10 16 N/A
8:35 pm 20:35 Clear 58 14.7 53 11.6 82 82 E 3 6 29.62 1003 10 16 N/A
8:55 pm 20:55 Clear 58 14.5 53 11.6 83 83 NE 5 7 29.62 1003 10 16 N/A
9:15 pm 21:15 Clear 55 12.7 50 9.9 83 83 N N/A 29.65 1004 10 16 N/A
9:35 pm 21:35 Clear 54 12 50 9.9 87 87 NNE 3 6 29.65 1004 10 16 N/A
9:55 pm 21:55 Clear 59 15.2 53 11.9 81 81 N 9 15 29.65 1004 10 16 N/A
10:15 pm 22:15 Clear 58 14.7 53 11.4 81 81 N 9 15 29.65 1004 10 16 N/A
10:35 pm 22:35 Clear 59 14.9 53 11.7 81 81 N 10 17 29.62 1003 10 16 N/A
10:55 pm 22:55 Clear 59 15 53 11.6 80 80 N 9 15 29.62 1003 10 16 N/A
11:15 pm 23:15 Clear 57 13.9 52 11.1 83 83 N 7 11 29.62 1003 10 16 N/A
11:35 pm 23:35 Clear 58 14.5 49 9.5 72 72 N 7 11 29.62 1003 10 16 N/A
11:55 pm 23:55 Clear 58 14.5 46 7.9 65 65 NNE 7 11 29.62 1003 10 16 N/A

Powered by AerisWeather